FW2433 Weather Reports


time (UTC)temp
F
wind
direction
speed
knots
gust
knots
rain 1hr
in
rain 24hr
in
rain mn
in
humidity
%
barometer
mb
20260503053001 54 281 0.0 0.0 0.00 0.00 0.00 76 1018.0
20260503051600 53 282 0.0 0.0 0.00 0.00 0.00 77 1018.1
20260503044557 53 279 0.0 0.0 0.00 0.00 0.00 79 1018.0
20260503043058 53 279 0.0 0.0 0.00 0.00 0.00 78 1018.0
20260503041554 53 279 0.0 0.0 0.00 0.00 0.00 77 1017.9
20260503040055 53 279 0.0 0.0 0.00 0.00 0.00 76 1017.9
20260503034554 53 279 0.0 0.0 0.00 0.00 0.00 76 1017.9
20260503033058 54 279 0.0 0.0 0.00 0.00 0.00 75 1017.9
20260503031550 54 279 0.0 0.0 0.00 0.00 0.00 75 1017.9
20260503030048 54 279 0.0 0.0 0.00 0.00 0.00 74 1017.9
20260503024550 54 238 0.0 0.0 0.00 0.00 0.00 74 1017.9
20260503023049 54 141 0.0 0.0 0.00 0.00 0.00 74 1018.0
20260503021544 54 141 0.0 0.0 0.00 0.00 0.00 73 1018.1
20260503020045 55 141 0.0 0.0 0.00 0.00 0.00 72 1018.2
20260503014539 55 140 0.0 0.0 0.00 0.00 0.00 72 1018.2
20260503013039 56 140 0.0 0.0 0.00 0.00 0.00 71 1018.2
20260503011545 56 140 0.0 0.0 0.00 0.00 0.00 71 1018.3
20260503010036 56 140 0.0 0.0 0.00 0.00 0.00 71 1018.4
20260503004537 56 140 0.0 0.0 0.00 0.00 0.00 69 1018.4
20260503003038 57 140 0.0 0.0 0.00 0.00 0.00 69 1018.4
20260503001530 57 140 0.0 0.0 0.00 0.00 0.00 69 1018.5
20260503000027 58 140 0.0 0.0 0.00 0.00 0.00 67 1018.6
20260502234531 58 140 0.0 0.0 0.00 0.00 0.00 66 1018.7
20260502233022 59 140 0.0 0.0 0.00 0.00 0.00 65 1018.8
20260502231526 59 140 0.0 0.0 0.00 0.00 0.00 64 1019.0
20260502230017 60 140 0.0 0.0 0.00 0.00 0.00 63 1019.1
20260502224515 60 140 0.0 0.0 0.00 0.00 0.00 62 1019.1
20260502223013 61 140 0.0 0.0 0.00 0.00 0.00 61 1019.2
20260502221512 61 138 0.0 0.0 0.00 0.00 0.00 61 1019.2
20260502220013 62 138 0.0 0.0 0.00 0.00 0.00 60 1019.4
20260502214508 62 136 0.0 0.0 0.00 0.00 0.00 61 1019.4
20260502213019 62 136 0.0 0.0 0.00 0.00 0.00 60 1019.4
20260502211511 63 136 0.0 0.0 0.00 0.00 0.00 60 1019.4
20260502210011 62 136 0.0 0.0 0.00 0.00 0.00 61 1019.5
20260502204506 63 136 0.0 0.0 0.00 0.00 0.00 61 1019.5
20260502203006 63 136 0.0 0.0 0.00 0.00 0.00 61 1019.6
20260502201517 64 136 0.0 0.0 0.00 0.00 0.00 60 1019.6
20260502200118 64 136 0.0 0.0 0.00 0.00 0.00 59 1019.6
20260502194503 65 136 0.0 0.0 0.00 0.00 0.00 57 1019.5
20260502193002 66 136 0.0 0.0 0.00 0.00 0.00 56 1019.5
20260502191502 67 136 0.0 0.0 0.00 0.00 0.00 54 1019.5
20260502190001 68 136 0.0 0.0 0.00 0.00 0.00 52 1019.5
20260502184605 69 136 0.0 0.0 0.00 0.00 0.00 50 1019.3
20260502183102 71 136 0.0 0.0 0.00 0.00 0.00 49 1019.3
20260502181601 72 136 0.0 0.0 0.00 0.00 0.00 46 1019.3
20260502180105 72 137 0.0 0.0 0.00 0.00 0.00 44 1019.3
20260502163057 77 141 0.0 0.0 0.00 0.00 0.00 37 1019.5
20260502161551 77 238 0.0 0.9 0.00 0.00 0.00 38 1019.7
20260502151606 76 121 0.0 2.6 0.00 0.00 0.00 36 1020.1
20260502123022 76 123 0.0 1.7 0.00 0.00 0.00 36 1022.2
20260502121519 76 139 0.0 0.9 0.00 0.00 0.00 36 1022.4
20260502114513 75 123 0.0 0.9 0.00 0.00 0.00 36 1022.8
20260502113010 75 108 0.0 0.0 0.00 0.00 0.00 37 1022.9
20260502111509 74 117 0.0 0.9 0.00 0.00 0.00 36 1023.1
20260502110005 74 296 0.0 0.0 0.00 0.00 0.00 36 1023.4
20260502104502 74 257 0.0 0.9 0.00 0.00 0.00 37 1023.7
20260502103059 73 132 0.0 0.9 0.00 0.00 0.00 38 1023.8
20260502101609 72 283 0.0 0.9 0.00 0.00 0.00 40 1023.9
20260502071514 59 278 0.0 0.0 0.00 0.00 0.00 63 1025.0
20260502070010 58 261 0.0 0.9 0.00 0.00 0.00 65 1025.1
20260502064507 57 281 0.0 0.0 0.00 0.00 0.00 65 1025.1
20260502063012 56 279 0.0 0.9 0.00 0.00 0.00 65 1025.1
20260502061510 55 281 0.0 0.0 0.00 0.00 0.00 65 1025.1
20260502060015 54 281 0.0 0.0 0.00 0.00 0.00 65 1025.1
20260502054503 53 279 0.0 0.0 0.00 0.00 0.00 66 1025.0